RJA402 HECA-OJAI

Flight info

Callsign RJA402
Flight time 0h 54m
Altitude 37000
Route CVO L677 MENLI N697 SISIK W976 TAKSU L550 KARIK B411 ULINA M319 LOSIL
Aircraft A346/H-SDE2E3FGHIJ3J4J5M1RWXY/LB1D1

Departure

Time 2026-04-28 08:43
Airport Cairo International Airport (HECA)

Arrival

Time 2026-04-28 09:37
Airport Queen Alia International Airport (OJAI)
Time Latitude Longitude Altitude Speed Heading
2026-04-28 08:11 30.11073 31.40234 392 ft 0 kts 15°
2026-04-28 08:32 30.11071 31.40233 393 ft 2 kts 16°
2026-04-28 08:33 30.11057 31.40228 393 ft 2 kts 18°
2026-04-28 08:33 30.11042 31.40223 393 ft 2 kts 16°
2026-04-28 08:33 30.11028 31.40218 393 ft 2 kts 15°
2026-04-28 08:33 30.11014 31.40212 393 ft 2 kts 33°
2026-04-28 08:34 30.11003 31.40200 393 ft 2 kts 61°
2026-04-28 08:34 30.10999 31.40184 393 ft 2 kts 84°
2026-04-28 08:34 30.10999 31.40170 393 ft 0 kts 105°
2026-04-28 08:34 30.11000 31.40165 393 ft 0 kts 107°
2026-04-28 08:37 30.10998 31.40175 392 ft 3 kts 107°
2026-04-28 08:38 30.10986 31.40218 392 ft 7 kts 106°
2026-04-28 08:38 30.10967 31.40294 392 ft 11 kts 106°
2026-04-28 08:38 30.10942 31.40391 392 ft 9 kts 107°
2026-04-28 08:38 30.10909 31.40454 392 ft 10 kts 151°
2026-04-28 08:39 30.10842 31.40426 392 ft 12 kts 233°
2026-04-28 08:39 30.10780 31.40343 392 ft 15 kts 227°
2026-04-28 08:39 30.10703 31.40247 392 ft 17 kts 228°
2026-04-28 08:39 30.10619 31.40136 392 ft 19 kts 229°
2026-04-28 08:40 30.10525 31.40013 392 ft 21 kts 229°
2026-04-28 08:40 30.10423 31.39877 392 ft 23 kts 229°
2026-04-28 08:40 30.10310 31.39727 392 ft 25 kts 228°
2026-04-28 08:40 30.10217 31.39608 392 ft 13 kts 227°
2026-04-28 08:41 30.10144 31.39578 392 ft 12 kts 159°
2026-04-28 08:41 30.10081 31.39632 392 ft 8 kts 138°
2026-04-28 08:41 30.10051 31.39663 392 ft 7 kts 138°
2026-04-28 08:41 30.10011 31.39717 392 ft 10 kts 114°
2026-04-28 08:42 30.10006 31.39816 392 ft 14 kts 82°
2026-04-28 08:42 30.10054 31.39917 392 ft 15 kts 57°
2026-04-28 08:42 30.10117 31.40025 392 ft 17 kts 51°
2026-04-28 08:42 30.10220 31.40160 392 ft 43 kts 48°
2026-04-28 08:43 30.10614 31.40678 393 ft 124 kts 51°
2026-04-28 08:43 30.11327 31.41606 464 ft 178 kts 47°
2026-04-28 08:43 30.12133 31.42679 1238 ft 175 kts 54°
2026-04-28 08:43 30.12597 31.43908 2118 ft 171 kts 73°
2026-04-28 08:44 30.12686 31.45246 2912 ft 173 kts 87°
2026-04-28 08:44 30.12610 31.46700 3358 ft 198 kts 101°
2026-04-28 08:44 30.11963 31.48276 3502 ft 240 kts 116°
2026-04-28 08:44 30.11024 31.50093 3571 ft 284 kts 118°
2026-04-28 08:45 30.09996 31.52147 4310 ft 300 kts 116°
2026-04-28 08:45 30.09032 31.54183 5642 ft 292 kts 114°
2026-04-28 08:45 30.08117 31.56191 6990 ft 285 kts 113°
2026-04-28 08:45 30.07223 31.58222 8061 ft 287 kts 113°
2026-04-28 08:46 30.06333 31.60283 9002 ft 293 kts 113°
2026-04-28 08:46 30.05432 31.62392 9941 ft 298 kts 113°
2026-04-28 08:46 30.04519 31.64541 10751 ft 307 kts 113°
2026-04-28 08:46 30.03558 31.66816 11323 ft 326 kts 114°
2026-04-28 08:47 30.02533 31.69243 11851 ft 345 kts 114°
2026-04-28 08:47 30.01458 31.71785 12346 ft 364 kts 115°
2026-04-28 08:47 30.00307 31.74500 12819 ft 383 kts 115°
2026-04-28 08:47 29.99111 31.77323 13315 ft 401 kts 115°
2026-04-28 08:48 29.97884 31.80213 14032 ft 410 kts 115°
2026-04-28 08:48 29.96617 31.83197 14894 ft 416 kts 116°
2026-04-28 08:48 29.95344 31.86195 15724 ft 421 kts 116°
2026-04-28 08:48 29.94057 31.89222 16498 ft 428 kts 116°
2026-04-28 08:49 29.92739 31.92321 17266 ft 434 kts 116°
2026-04-28 08:49 29.91403 31.95460 18011 ft 440 kts 116°
2026-04-28 08:49 29.90054 31.98626 18735 ft 445 kts 117°
2026-04-28 08:49 29.88685 32.01837 19470 ft 450 kts 117°
2026-04-28 08:50 29.87305 32.05071 20209 ft 455 kts 117°
2026-04-28 08:50 29.85903 32.08352 20879 ft 460 kts 117°
2026-04-28 08:50 29.84483 32.11669 21529 ft 466 kts 117°
2026-04-28 08:50 29.83046 32.15029 22211 ft 471 kts 117°
2026-04-28 08:51 29.81591 32.18425 22849 ft 476 kts 118°
2026-04-28 08:51 29.80130 32.21835 23499 ft 480 kts 117°
2026-04-28 08:51 29.78635 32.25316 24131 ft 485 kts 118°
2026-04-28 08:51 29.77136 32.28802 24757 ft 490 kts 117°
2026-04-28 08:52 29.75632 32.32307 25346 ft 495 kts 117°
2026-04-28 08:52 29.74097 32.35875 25931 ft 500 kts 118°
2026-04-28 08:52 29.72544 32.39489 26470 ft 505 kts 118°
2026-04-28 08:52 29.70981 32.43119 27031 ft 510 kts 118°
2026-04-28 08:53 29.69414 32.46749 27579 ft 514 kts 117°
2026-04-28 08:53 29.67813 32.50458 28157 ft 517 kts 117°
2026-04-28 08:53 29.66225 32.54132 28928 ft 516 kts 117°
2026-04-28 08:53 29.64643 32.57795 29808 ft 512 kts 117°
2026-04-28 08:54 29.63196 32.61526 30474 ft 511 kts 113°
2026-04-28 08:54 29.61982 32.65463 31086 ft 512 kts 108°
2026-04-28 08:54 29.61062 32.69449 31589 ft 514 kts 103°
2026-04-28 08:54 29.60440 32.73467 32071 ft 516 kts 98°
2026-04-28 08:55 29.60100 32.77599 32581 ft 517 kts 93°
2026-04-28 08:55 29.60041 32.81699 33029 ft 518 kts 90°
2026-04-28 08:55 29.60089 32.85805 33412 ft 519 kts 89°
2026-04-28 08:55 29.60158 32.89972 33815 ft 522 kts 89°
2026-04-28 08:56 29.60220 32.94167 34236 ft 524 kts 89°
2026-04-28 08:56 29.60274 32.98355 34635 ft 526 kts 90°
2026-04-28 08:56 29.60317 33.02494 34997 ft 529 kts 89°
2026-04-28 08:56 29.60355 33.06754 35384 ft 531 kts 90°
2026-04-28 08:57 29.60391 33.10982 35712 ft 534 kts 90°
2026-04-28 08:57 29.60425 33.15265 35971 ft 538 kts 90°
2026-04-28 08:57 29.60457 33.19566 36169 ft 543 kts 90°
2026-04-28 08:57 29.60491 33.23907 36386 ft 548 kts 90°
2026-04-28 08:58 29.60518 33.28339 36640 ft 552 kts 90°
2026-04-28 08:58 29.60545 33.32739 36934 ft 555 kts 90°
2026-04-28 08:58 29.60572 33.37177 37016 ft 557 kts 90°
2026-04-28 08:59 29.60621 33.46105 37039 ft 559 kts 90°
2026-04-28 08:59 29.60664 33.55043 37042 ft 558 kts 90°
2026-04-28 09:00 29.60699 33.63953 37031 ft 559 kts 90°
2026-04-28 09:00 29.60732 33.72891 37041 ft 561 kts 91°
2026-04-28 09:01 29.60756 33.81829 37046 ft 560 kts 91°
2026-04-28 09:01 29.60755 33.90709 37058 ft 561 kts 91°
2026-04-28 09:02 29.60743 33.99692 37033 ft 561 kts 91°
2026-04-28 09:02 29.60720 34.08606 37048 ft 561 kts 91°
2026-04-28 09:03 29.60692 34.17524 37030 ft 561 kts 91°
2026-04-28 09:03 29.60668 34.26511 37014 ft 562 kts 91°
2026-04-28 09:04 29.60688 34.35450 37037 ft 563 kts 91°
2026-04-28 09:04 29.60703 34.44444 37057 ft 564 kts 91°
2026-04-28 09:05 29.60220 34.53366 37081 ft 559 kts 105°
2026-04-28 09:05 29.57532 34.61542 37062 ft 543 kts 126°
2026-04-28 09:05 29.55421 34.65081 37054 ft 532 kts 136°
2026-04-28 09:06 29.52968 34.68199 37046 ft 526 kts 142°
2026-04-28 09:06 29.48164 34.74608 37018 ft 540 kts 131°
2026-04-28 09:07 29.44905 34.82392 37009 ft 555 kts 110°
2026-04-28 09:07 29.43917 34.91221 37001 ft 564 kts 89°
2026-04-28 09:07 29.44344 34.95652 36982 ft 564 kts 78°
2026-04-28 09:08 29.45374 35.00000 36983 ft 562 kts 68°
2026-04-28 09:08 29.49028 35.07758 36965 ft 552 kts 48°
2026-04-28 09:09 29.54188 35.14209 37001 ft 543 kts 36°
2026-04-28 09:09 29.60143 35.19363 36976 ft 530 kts 24°
2026-04-28 09:10 29.66623 35.23050 36984 ft 515 kts 12°
2026-04-28 09:10 29.73423 35.25616 37012 ft 511 kts
2026-04-28 09:11 29.80202 35.28028 36987 ft 512 kts
2026-04-28 09:11 29.87025 35.30508 37011 ft 512 kts
2026-04-28 09:12 29.93811 35.33002 37022 ft 513 kts
2026-04-28 09:12 30.00556 35.35490 36726 ft 508 kts
2026-04-28 09:12 30.03943 35.36737 35964 ft 513 kts 10°
2026-04-28 09:13 30.07355 35.37993 35246 ft 515 kts 11°
2026-04-28 09:13 30.10727 35.39241 34610 ft 515 kts 11°
2026-04-28 09:13 30.14142 35.40509 33935 ft 514 kts 12°
2026-04-28 09:13 30.17551 35.41781 33261 ft 515 kts 13°
2026-04-28 09:14 30.20925 35.43205 32677 ft 516 kts 17°
2026-04-28 09:14 30.24221 35.44851 32009 ft 517 kts 20°
2026-04-28 09:14 30.27429 35.46694 31337 ft 516 kts 22°
2026-04-28 09:14 30.30609 35.48601 30641 ft 513 kts 23°
2026-04-28 09:15 30.33750 35.50509 29275 ft 510 kts 24°
2026-04-28 09:15 30.36816 35.52374 27994 ft 499 kts 24°
2026-04-28 09:15 30.39876 35.54238 27293 ft 492 kts 23°
2026-04-28 09:15 30.42919 35.56081 26552 ft 491 kts 23°
2026-04-28 09:16 30.45900 35.57886 26032 ft 485 kts 23°
2026-04-28 09:16 30.48875 35.59687 25517 ft 479 kts 23°
2026-04-28 09:16 30.51825 35.61474 24993 ft 473 kts 23°
2026-04-28 09:16 30.54695 35.63211 24498 ft 468 kts 23°
2026-04-28 09:17 30.57581 35.64959 23969 ft 463 kts 23°
2026-04-28 09:17 30.60412 35.66675 23450 ft 459 kts 24°
2026-04-28 09:17 30.63250 35.68396 22927 ft 456 kts 24°
2026-04-28 09:17 30.66040 35.70088 22432 ft 452 kts 24°
2026-04-28 09:18 30.68796 35.71763 21936 ft 448 kts 24°
2026-04-28 09:18 30.71540 35.73432 21439 ft 444 kts 24°
2026-04-28 09:18 30.74276 35.75097 20950 ft 440 kts 24°
2026-04-28 09:18 30.76959 35.76729 20459 ft 435 kts 24°
2026-04-28 09:19 30.79627 35.78426 19953 ft 432 kts 27°
2026-04-28 09:19 30.82101 35.80316 19441 ft 431 kts 32°
2026-04-28 09:19 30.84455 35.82475 18929 ft 429 kts 37°
2026-04-28 09:19 30.86701 35.84730 18451 ft 426 kts 38°
2026-04-28 09:20 30.88911 35.86991 17952 ft 422 kts 38°
2026-04-28 09:20 30.91128 35.89262 17461 ft 418 kts 39°
2026-04-28 09:20 30.93293 35.91476 16960 ft 415 kts 39°
2026-04-28 09:20 30.95442 35.93671 16463 ft 411 kts 39°
2026-04-28 09:21 30.97598 35.95873 15956 ft 408 kts 39°
2026-04-28 09:21 30.99715 35.98036 15454 ft 405 kts 39°
2026-04-28 09:21 31.01807 36.00172 14967 ft 402 kts 39°
2026-04-28 09:21 31.03908 36.02319 14475 ft 398 kts 39°
2026-04-28 09:22 31.05987 36.04444 13987 ft 394 kts 39°
2026-04-28 09:22 31.08018 36.06520 13510 ft 390 kts 40°
2026-04-28 09:22 31.10057 36.08608 13029 ft 386 kts 40°
2026-04-28 09:22 31.12065 36.10666 12533 ft 382 kts 40°
2026-04-28 09:23 31.14028 36.12678 12050 ft 377 kts 39°
2026-04-28 09:23 31.16112 36.14496 11563 ft 371 kts 31°
2026-04-28 09:23 31.18364 36.15902 11005 ft 359 kts 22°
2026-04-28 09:23 31.20640 36.16997 10616 ft 342 kts 20°
2026-04-28 09:24 31.22789 36.17986 10457 ft 321 kts 20°
2026-04-28 09:24 31.24812 36.18912 10357 ft 307 kts 20°
2026-04-28 09:24 31.26782 36.19819 10217 ft 297 kts 20°
2026-04-28 09:24 31.28674 36.20694 10071 ft 287 kts 21°
2026-04-28 09:25 31.30484 36.21533 9997 ft 275 kts 21°
2026-04-28 09:25 31.32237 36.22349 9885 ft 267 kts 21°
2026-04-28 09:25 31.33959 36.23150 9562 ft 268 kts 21°
2026-04-28 09:25 31.35703 36.23962 9251 ft 267 kts 21°
2026-04-28 09:26 31.37422 36.24764 8952 ft 266 kts 21°
2026-04-28 09:26 31.39136 36.25561 8652 ft 265 kts 21°
2026-04-28 09:26 31.40840 36.26358 8356 ft 263 kts 21°
2026-04-28 09:26 31.42544 36.27153 8061 ft 262 kts 21°
2026-04-28 09:27 31.45923 36.28730 7488 ft 260 kts 21°
2026-04-28 09:27 31.47599 36.29512 7204 ft 259 kts 21°
2026-04-28 09:27 31.49265 36.30291 6971 ft 255 kts 21°
2026-04-28 09:28 31.50903 36.30888 6909 ft 241 kts
2026-04-28 09:28 31.52533 36.30880 6802 ft 229 kts 352°
2026-04-28 09:28 31.54091 36.30589 6624 ft 224 kts 351°
2026-04-28 09:28 31.55622 36.30276 6420 ft 220 kts 351°
2026-04-28 09:29 31.57125 36.29972 6223 ft 216 kts 351°
2026-04-28 09:29 31.58598 36.29681 6030 ft 211 kts 352°
2026-04-28 09:29 31.60035 36.29474 5817 ft 209 kts 354°
2026-04-28 09:29 31.61487 36.29340 5599 ft 208 kts 358°
2026-04-28 09:30 31.62948 36.29314 5430 ft 209 kts 359°
2026-04-28 09:30 31.64397 36.29316 5273 ft 207 kts 359°
2026-04-28 09:30 31.65789 36.29279 5184 ft 194 kts 353°
2026-04-28 09:30 31.67083 36.29025 5072 ft 182 kts 348°
2026-04-28 09:31 31.68305 36.28703 4969 ft 179 kts 345°
2026-04-28 09:31 31.69515 36.28334 4872 ft 179 kts 345°
2026-04-28 09:31 31.70714 36.27963 4712 ft 178 kts 345°
2026-04-28 09:31 31.71911 36.27588 4624 ft 178 kts 342°
2026-04-28 09:32 31.73088 36.27111 4573 ft 178 kts 337°
2026-04-28 09:32 31.74195 36.26434 4550 ft 178 kts 328°
2026-04-28 09:32 31.74965 36.25340 4502 ft 180 kts 288°
2026-04-28 09:32 31.75097 36.23876 4493 ft 182 kts 269°
2026-04-28 09:33 31.74964 36.22389 4472 ft 183 kts 264°
2026-04-28 09:33 31.74762 36.20883 4447 ft 184 kts 262°
2026-04-28 09:33 31.74546 36.19410 4427 ft 184 kts 262°
2026-04-28 09:33 31.74325 36.17924 4404 ft 183 kts 262°
2026-04-28 09:34 31.74108 36.16460 4349 ft 183 kts 262°
2026-04-28 09:34 31.73894 36.15000 4291 ft 182 kts 262°
2026-04-28 09:34 31.73681 36.13532 4266 ft 182 kts 262°
2026-04-28 09:34 31.73473 36.12114 4091 ft 169 kts 262°
2026-04-28 09:35 31.73281 36.10793 3864 ft 159 kts 262°
2026-04-28 09:35 31.73094 36.09498 3656 ft 154 kts 262°
2026-04-28 09:35 31.72914 36.08257 3470 ft 154 kts 262°
2026-04-28 09:35 31.72736 36.07026 3280 ft 153 kts 262°
2026-04-28 09:36 31.72558 36.05802 3085 ft 152 kts 262°
2026-04-28 09:36 31.72375 36.04576 2895 ft 151 kts 261°
2026-04-28 09:36 31.72193 36.03359 2708 ft 150 kts 261°
2026-04-28 09:36 31.72019 36.02158 2524 ft 149 kts 262°
2026-04-28 09:37 31.71857 36.00970 2416 ft 138 kts 262°
2026-04-28 09:37 31.71728 36.00037 2412 ft 92 kts 262°
2026-04-28 09:37 31.71658 35.99505 2412 ft 38 kts 268°
2026-04-28 09:37 31.71719 35.99259 2412 ft 23 kts 290°
2026-04-28 09:38 31.71772 35.99092 2412 ft 19 kts 290°
2026-04-28 09:38 31.71794 35.99029 2412 ft 6 kts 292°
2026-04-28 09:38 31.71817 35.98962 2412 ft 10 kts 292°
2026-04-28 09:38 31.71873 35.98913 2412 ft 11 kts 345°
2026-04-28 09:39 31.71940 35.98898 2412 ft 10 kts 352°
2026-04-28 09:39 31.72002 35.98888 2412 ft 3 kts 351°
2026-04-28 09:39 31.72037 35.98882 2412 ft 1 kts 351°
2026-04-28 09:39 31.72054 35.98879 2412 ft 2 kts 352°
2026-04-28 09:40 31.72059 35.98878 2413 ft 0 kts 352°